{"data":{"norad_id":39490,"epoch":"2026-05-25T04:04:01.509888Z","epoch_age_seconds":67133,"freshness":"FRESH","line1":"1 39490U 13078A   26145.16946192  .00002420  00000+0  18242-3 0  9997","line2":"2 39490  82.4113 283.7034 0011945 327.4431  32.6056 15.02013765674501","mean_motion":15.02013765,"eccentricity":0.0011945,"inclination_deg":82.4113,"raan_deg":283.7034,"arg_perigee_deg":327.4431,"mean_anomaly_deg":32.6056,"bstar":0.00018242,"rev_number":67450,"period_min":95.871291832003,"perigee_km":552.39901446194,"apogee_km":568.97586604972,"semimajor_km":6938.8244402558,"source":"CELESTRAK","updated_at":"2026-05-25T13:38:25.286667Z"}}